Location: Newark
(54.6833°N, 25.2833°E)
Time: 12:34:13
(UTC+00:00)

Transit 2A - Visible Passes

Search period start: 21 January 2021 00:00
Search period end: 31 January 2021 00:00
Orbit: 598 x 960 km, 66.7° (Epoch: 20 January)

Date Brightness Start Highest point End Pass type
(mag) Time Alt. Az. Time Alt. Az. Time Alt. Az.
21 Jan 7.6 02:34:58 29° SE 02:36:13 32° ESE 02:40:54 10° NE visible
21 Jan 6.0 04:15:31 22° WSW 04:19:12 67° NW 04:24:20 10° NE visible
22 Jan 8.0 02:02:30 24° ESE 02:02:30 24° ESE 02:06:28 10° ENE visible
22 Jan 5.9 03:43:02 42° SW 03:44:59 84° NW 03:50:10 10° NE visible
22 Jan 6.9 05:24:00 10° W 05:28:48 30° NNW 05:33:13 10° NE visible
23 Jan 8.6 01:29:51 16° E 01:29:51 16° E 01:31:50 10° ENE visible
23 Jan 6.1 03:10:22 71° S 03:10:48 77° SE 03:15:59 10° NE visible
23 Jan 6.7 04:50:53 17° W 04:54:25 35° NNW 04:59:02 10° NE visible
24 Jan 6.7 02:37:33 52° E 02:37:33 52° E 02:41:46 10° NE visible
24 Jan 6.5 04:18:04 30° W 04:20:05 42° NW 04:24:52 10° NE visible
25 Jan 7.7 02:04:38 30° ENE 02:04:38 30° ENE 02:07:30 10° NE visible
25 Jan 6.2 03:45:08 48° WNW 03:45:47 51° NW 03:50:43 10° NE visible
25 Jan 7.2 05:25:46 10° WNW 05:29:59 23° NNW 05:33:56 10° NE visible
26 Jan 8.4 01:31:38 18° ENE 01:31:38 18° ENE 01:33:10 10° NE visible
26 Jan 6.2 03:12:07 59° N 03:12:07 59° N 03:16:33 10° NE visible
26 Jan 7.1 04:52:37 16° WNW 04:55:33 26° NNW 04:59:40 10° NE visible
27 Jan 9.0 00:58:33 11° ENE 00:58:33 11° ENE 00:58:45 10° ENE visible
27 Jan 6.9 02:39:03 43° NE 02:39:03 43° NE 02:42:24 10° NE visible
27 Jan 7.0 04:19:32 25° NW 04:21:08 29° NNW 04:25:27 10° NE visible
28 Jan 7.7 02:05:55 28° NE 02:05:55 28° NE 02:08:13 10° NE visible
28 Jan 6.7 03:46:24 33° NW 03:46:45 34° NNW 03:51:15 10° NE visible
28 Jan 7.4 05:27:27 10° NW 05:31:17 20° N 05:34:51 10° NE visible
29 Jan 8.4 01:32:45 18° NE 01:32:45 18° NE 01:34:00 10° NE visible
29 Jan 6.8 03:13:14 37° N 03:13:14 37° N 03:17:05 10° NE visible
29 Jan 7.4 04:53:43 13° NW 04:56:47 21° N 05:00:28 10° NE visible
30 Jan 8.9 00:59:32 11° NE 00:59:32 11° NE 00:59:45 10° NE visible
30 Jan 7.2 02:40:02 32° NNE 02:40:02 32° NNE 02:42:56 10° NE visible
30 Jan 7.3 04:20:30 19° NW 04:22:20 23° NNW 04:26:09 10° NE visible
